GSAT0204 (GALILEO 8) (40545 NORAD) Tracking and Keplerian Element Data

This shows tracking and keplerian element data for the satellite.

Feedback or suggestion? Click here.




ElementValue
Catalog40545
NameGSAT0204 (GALILEO 8)
Epoch Orbit2055
Epoch Day197.54694697
Epoch Year2018
RAAN60.9454
Inclination55.9252
Eccentricity0.0001383
Argument of Perigee122.0401
Mean Anonmoly238.0431
Mean Motion1.704752
Decay Rate-6.7E-07
L11 40545U 15017B 18197.54694697 -.00000067 00000-0 00000+0 0 9991
L22 40545 55.9252 60.9454 0001383 122.0401 238.0431 1.70475200 20550

Live tracking and technical data element details for GSAT0204 (GALILEO 8) (NORAD 40545). GSAT0204 (GALILEO 8) can be tracked NOW for your location showing map with azimuth and elevation plus other details from your city location.

Track the satellite on the map from your city or location and see movement details for azimuth, elevation, latitude, longitude, range, height, and movement on the map or in text.







IsCatalogInMostPopularTable: catalog: 40545, numindb: 60
Update: records affected: 1



GetName: 40545 GSAT0204 (GALILEO 8)

Hit Count: updated at: Fri, 20 Jul 2018 20:24:30 GMT